Holland, MI

7:28 AM EST on February 26, 2017 (GMT -0500)
Tulip City

Weather History for KBIV - October, 2012

Change the Weather History Date:

Monday, October 1, 2012

  Actual Average Record
Temperature  
Mean Temperature 54 °F 58 °F  
Max Temperature 68 °F 67 °F 84 °F (1971)
Min Temperature 40 °F 48 °F 30 °F (1984)
Degree Days  
Heating Degree Days 11 8  
Month to date heating degree days 11 8  
Since 1 July heating degree days 152 138  
Cooling Degree Days 0 1  
Month to date cooling degree days 0 1  
Year to date cooling degree days 1059 683  
Growing Degree Days 2 (Base 50)    
Moisture  
Dew Point 43 °F    
Average Humidity 68    
Maximum Humidity 93    
Minimum Humidity 42    
Precipitation  
Precipitation 0.00 in 0.10 in 0.95 in (1977)
Month to date precipitation 0.00 0.10  
Year to date precipitation 22.50 27.21  
Sea Level Pressure  
Sea Level Pressure 29.91 in    
Wind  
Wind Speed 1 mph (West)    
Max Wind Speed 8 mph    
Max Gust Speed 13 mph    
Visibility 8 miles    
Events      
T = Trace of Precipitation, MM = Missing Value Source: NWS Daily Summary

Daily Weather History Graph

Daily Weather History Graph

Search for Another Location

Airport or City:

Trip Planner

Search our weather history database for the weather conditions in past years. The results will help you decide how hot, cold, wet, or windy it might be!

Date:

Astronomy

Oct. 01, 2012 Rise Set
Actual Time 7:42 AM EDT 7:24 PM EDT
Civil Twilight 7:14 AM EDT 7:53 PM EDT
Nautical Twilight 6:41 AM EDT 8:25 PM EDT
Astronomical Twilight 6:08 AM EDT 8:58 PM EDT
Moon 7:57 PM EDT (10/1) 9:14 AM EDT (10/1)
Length of Visible Light 12h 39m
Length of Day
11h 42m
Full, 98% of the Moon is Illuminated
Oct 1
Full
Oct 8
Last Quarter
Oct 15
New
Oct 21
First Quarter
Oct 29
Full

Hourly Weather History & Observations

Time (EDT) Temp. Dew Point Humidity Pressure Visibility Wind Dir Wind Speed Gust Speed Precip Events Conditions
12:53 AM 46.9 °F 44.1 °F 90% 29.96 in 10.0 mi Calm Calm - N/A   Clear
1:53 AM 45.0 °F 42.1 °F 90% 29.96 in 10.0 mi Calm Calm - N/A   Clear
2:53 AM 44.1 °F 41.0 °F 89% 29.95 in 9.0 mi Calm Calm - N/A   Clear
3:53 AM 43.0 °F 39.9 °F 89% 29.95 in 9.0 mi Calm Calm - N/A   Clear
4:53 AM 42.1 °F 39.0 °F 89% 29.94 in 4.0 mi Calm Calm - N/A   Clear
5:15 AM 42.8 °F 39.2 °F 87% 29.93 in 2.5 mi Calm Calm - N/A   Clear
5:24 AM 42.8 °F 39.2 °F 87% 29.93 in 5.0 mi Calm Calm - N/A   Clear
5:53 AM 41.0 °F 37.9 °F 89% 29.88 in 10.0 mi Calm Calm - N/A   Clear
6:53 AM 41.0 °F 37.9 °F 89% 29.94 in 7.0 mi Calm Calm - N/A   Clear
7:20 AM 39.2 °F 37.4 °F 93% 29.94 in 1.8 mi Calm Calm - N/A   Clear
7:37 AM 41.0 °F 37.4 °F 87% 29.94 in 3.0 mi Calm Calm - N/A   Clear
7:53 AM 41.0 °F 37.9 °F 89% 29.95 in 7.0 mi Calm Calm - N/A   Clear
8:53 AM 45.0 °F 42.1 °F 90% 29.90 in 10.0 mi Calm Calm - N/A   Clear
9:53 AM 54.0 °F 46.9 °F 77% 29.96 in 10.0 mi South 3.5 mph - N/A   Clear
10:53 AM 60.1 °F 48.0 °F 64% 29.96 in 10.0 mi Calm Calm - N/A   Clear
11:53 AM 63.0 °F 46.0 °F 54% 29.94 in 10.0 mi SSE 3.5 mph - N/A   Clear
12:53 PM 66.0 °F 42.1 °F 42% 29.92 in 10.0 mi Calm Calm - N/A   Clear
1:53 PM 66.0 °F 42.1 °F 42% 29.91 in 10.0 mi ESE 3.5 mph - N/A   Clear
3:53 PM 66.9 °F 46.9 °F 49% 29.88 in 10.0 mi West 3.5 mph - N/A   Clear
4:53 PM 66.0 °F 45.0 °F 47% 29.86 in 10.0 mi NNW 3.5 mph - N/A   Clear
5:53 PM 66.0 °F 46.0 °F 48% 29.86 in 10.0 mi NW 5.8 mph - N/A   Clear
6:53 PM 62.1 °F 46.9 °F 58% 29.86 in 10.0 mi NW 4.6 mph - N/A   Clear
7:53 PM 57.0 °F 48.0 °F 72% 29.87 in 10.0 mi Calm Calm - N/A   Clear
8:53 PM 55.9 °F 48.0 °F 75% 29.82 in 10.0 mi Calm Calm - N/A   Clear
9:53 PM 57.0 °F 48.0 °F 72% 29.88 in 10.0 mi Calm Calm - N/A   Clear
10:53 PM 57.0 °F 48.0 °F 72% 29.87 in 10.0 mi Calm Calm - N/A   Clear